Weather Roundup
Issued by NWS

Home | Current Version | Previous Version | Text Only | Print | Product List | Glossary On
Versions: 1 2 3 4 5 6 7 8 9 10 11 12 13 14 15 16 17 18 19 20 21 22 23 24 25 26 27 28 29 30 31 32 33 34 35 36 37 38 39 40 41 42 43 44 45 46 47 48 49 50
334
NZUS93 KARX 302059
HRRWXR

CURRENT HOURLY OBSERVATIONS ACROSS
MUCH OF THE UPPER MISSISSIPPI VALLEY
NATIONAL WEATHER SERVICE LA CROSSE WI
400 PM CDT SAT APR 30 2016


...SOUTHEAST MINNESOTA...


CITY           SKY/WX    TMP DP  RH WIND       PRES   REMARKS
ROCHESTER      LGT RAIN  45  41  86 E12       30.02R
ROCHESTER/MAYO CLOUDY    48  38  69 E5G18     30.02R
WINONA         DRIZZLE   54  37  54 E12G22    30.01S
AUSTIN         RAIN      45  39  81 NE15G21   29.99F
ALBERT LEA     NOT AVBL
DODGE CENTER   LGT RAIN  45  41  87 E18       30.02R
PRESTON        RAIN      43  39  85 E9        30.01R
OWATONNA       RAIN      46  39  76 E21G29    30.03R
FARIBAULT      NOT AVBL
$$

...ELSEWHERE IN MINNESOTA...


CITY           SKY/WX    TMP DP  RH WIND       PRES   REMARKS
MINNEAPOLIS    CLOUDY    57  32  38 E20       30.04R
INTNL FALLS    SUNNY     56  27  32 E13G23    30.22F
DULUTH         MOSUNNY   47  27  45 E21G32    30.21F
RED WING       CLOUDY    57  32  38 E10G17    30.02R
REDWOOD FALLS  CLOUDY    54  34  46 E14G26    30.01F
MANKATO        CLOUDY    50  36  57 E20G29    30.02F
WORTHINGTON    CLOUDY    43  40  89 NE37G44   29.88S
FAIRMONT       CLOUDY    43  34  70 NE20G26   29.97F
$$

...SOUTHWEST WISCONSIN...


CITY           SKY/WX    TMP DP  RH WIND       PRES   REMARKS
LA CROSSE      LGT RAIN  51  38  60 E14G23    30.00S
PRAIRIE DU CHI LGT RAIN  47  42  84 E15G22    29.95R
BOSCOBEL       LGT RAIN  48  44  86 E14G21    29.98R FOG
LONE ROCK      NOT AVBL
PLATTEVILLE    CLOUDY    46  44  94 NE21G31   29.91F
FORT MC COY    CLOUDY    52  37  56 E16G23    30.01S
MAUSTON-NEW LI NOT AVBL
VIROQUA        CLOUDY    45  42  91 NE14      29.98R
WIS DELLS      RAIN      45  41  85 E9        29.98F
$$

...ELSEWHERE IN WISCONSIN...


CITY           SKY/WX    TMP DP  RH WIND       PRES   REMARKS
MILWAUKEE      LGT RAIN  43  39  86 NE13      30.01F
MADISON        LGT RAIN  45  38  76 E16G29    29.98F
GREEN BAY      CLOUDY    51  37  58 NE14      30.08F
EAU CLAIRE     NOT AVBL
BLACK RVR FLS  FAIR      54  29  38 E17G29    30.02F
MEDFORD        PTSUNNY   59  34  39 NE16G23   30.04F
WAUSAU         CLOUDY    57  31  37 NE15G22   30.03F
WIS RAPIDS     CLOUDY    53  30  41 E18G28    30.05F
MARSHFIELD     CLOUDY    54  31  41 E15       30.03F
RICE LAKE      CLOUDY    58  31  35 NE16G22   30.07F
$$

...NORTHEAST IOWA...


CITY           SKY/WX    TMP DP  RH WIND       PRES   REMARKS
WATERLOO       LGT RAIN  47  44  90 E21       29.89R FOG
DUBUQUE        RAIN      45  43  93 NE18G31   29.87F FOG
DECORAH        RAIN      45  45 100 NE10G16   29.96R
MASON CITY     LGT RAIN  44  42  93 NE25G35   29.91F
CHARLES CITY   RAIN      45  45 100 NE21G26   29.93F
OELWEIN        RAIN      46  46 100 NE21G29   29.90S
$$

...ELSEWHERE IN IOWA...


CITY           SKY/WX    TMP DP  RH WIND       PRES   REMARKS
DES MOINES     DRIZZLE   51  47  86 E16G22    29.80R FOG
IOWA CITY      LGT RAIN  49  47  93 NE14G25   29.83S FOG
FORT DODGE     CLOUDY    46  41  81 E25G31    29.87S
MARSHALLTOWN   CLOUDY    48  45  89 E25G35    29.83R
CEDAR RAPIDS   LGT RAIN  48  46  93 NE16G30   29.83R FOG
$$

...NORTHERN ILLINOIS...


CITY           SKY/WX    TMP DP  RH WIND       PRES   REMARKS
CHICAGO-OHARE  RAIN      45  43  93 NE16      29.93F FOG
CHICAGO-MIDWAY RAIN      47  43  86 NE17      29.92F FOG
MOLINE         LGT RAIN  50  47  89 E18G28    29.80S FOG
ROCKFORD       LGT RAIN  46  43  89 NE20G35   29.92F FOG
PEORIA         LGT RAIN  55  53  93 E12       29.78S FOG
$$

NOTE: "FAIR" INDICATES FEW OR NO CLOUDS BELOW 12,000 FEET WITH NO
SIGNIFICANT WEATHER AND/OR OBSTRUCTIONS TO VISIBILITY. WIND
SPEEDS ARE IN MILES-PER-HOUR.




USA.gov is the U.S. government's official web portal to all federal, state and local government web resources and services.